Temp
80 79 79 80 81 83 83 83 83 83 83 83 84 86 86 86 84 84 83 82 81 81 82 82 82 82 82 83 83 83 84 84 84 85 84 84 85 85 84 86 86 84 87 87 87 86 87 87 86 87 87 86 87 86 86 86 86 88 87 86 86 86 86
78 78 79 80 81 83 84 84 83 84 83 84 85 84 86 86 84 84 83 82 82 82 82 82 82 82 83 83 84 83 83 84 84 84 85 84 84 84 86 86 85 84 84 86 87 86 86 87 87 86 86 87 87 86 87 86 86 86 87 86 86 85 86
76 75 77 80 81 83 82 84 83 84 84 85 86 86 85 84 84 84 83 83 82 82 84 83 82 83 83 83 83 83 84 85 84 85 85 87 86 88 87 86 86 87 88 87 86 88 88 87 86 86 87 87 89 87 86 86 86 87 87 86 86 87 85
75 74 75 76 79 82 83 83 83 84 85 86 85 87 86 84 86 85 85 84 83 83 82 84 84 85 85 83 83 83 84 84 85 87 88 88 88 88 86 86 85 87 86 87 89 88 90 87 87 86 85 86 86 88 88 87 88 88 87 86 86 87 85
75 74 75 73 76 79 81 82 82 83 84 85 84 85 87 86 87 86 86 87 87 85 86 86 87 87 85 86 86 86 85 86 85 87 88 88 87 87 87 88 88 87 87 89 88 86 85 86 88 87 86 85 87 87 87 87 88 87 86 86 86 87 87
75 73 73 73 74 75 77 79 81 83 83 83 83 84 86 86 87 87 86 86 86 86 86 86 87 86 85 87 87 87 86 86 85 85 87 87 86 88 88 88 89 88 89 88 89 88 87 87 88 88 88 90 89 89 89 89 89 89 87 86 86 88 89
74 74 72 71 71 72 75 76 79 82 83 84 84 85 86 85 85 85 85 85 84 83 83 84 86 87 85 86 86 86 85 87 86 87 88 88 88 88 88 88 88 89 90 89 88 89 88 87 87 87 88 89 89 89 88 87 87 88 87 86 85 86 86
72 71 73 74 74 72 72 74 78 80 80 81 83 84 83 84 84 83 83 84 83 82 82 83 85 85 84 86 86 87 87 88 88 87 87 88 89 87 89 89 88 88 88 89 88 88 88 88 89 88 88 89 88 88 89 87 86 89 88 87 86 86 89
70 71 70 71 72 72 72 71 74 78 79 80 81 82 82 83 83 83 83 83 83 83 82 84 85 86 85 85 85 86 88 88 88 87 87 88 89 89 90 90 89 89 88 89 90 89 89 89 89 88 87 87 87 86 87 86 87 88 87 86 86 86 88
69 69 71 71 71 70 70 70 72 74 76 77 77 80 81 82 82 82 82 82 83 83 83 84 84 85 84 84 84 87 88 87 87 88 88 88 89 89 90 91 90 89 89 90 91 90 89 89 89 88 86 87 86 86 86 87 87 88 88 87 86 86 85
68 69 70 72 71 69 68 69 70 72 74 74 75 78 80 81 81 81 82 82 83 83 83 83 83 83 83 84 84 84 86 87 88 88 87 88 90 90 90 90 91 90 89 90 90 90 90 88 88 87 86 88 87 87 86 87 87 87 88 88 88 87 88
67 68 68 69 70 70 69 68 69 69 71 73 75 77 78 80 81 81 81 82 83 82 82 82 83 83 84 83 83 82 83 85 87 87 87 88 89 90 90 91 90 90 90 90 89 89 90 89 89 89 87 87 88 88 87 87 87 87 87 88 89 88 88
66 66 67 67 68 68 69 69 69 69 70 71 74 76 78 79 80 80 81 81 82 83 82 81 81 80 79 81 82 82 82 82 82 86 88 88 89 90 90 90 91 90 90 90 89 89 90 90 89 89 89 88 88 89 88 87 88 86 86 87 87 87 87
66 66 67 68 67 67 67 68 68 69 70 70 70 72 73 75 78 80 80 80 80 81 82 81 81 79 79 80 80 81 82 83 84 86 86 86 86 87 89 90 90 90 90 90 89 89 90 91 90 90 90 89 89 89 89 88 88 87 86 87 88 88 87
64 65 66 67 67 67 67 67 68 68 69 70 71 72 72 74 75 76 78 80 80 81 81 80 80 79 79 80 80 80 81 82 84 84 84 84 84 84 86 88 88 89 89 88 89 91 91 91 91 90 90 90 89 89 90 90 89 89 88 87 87 88 88
63 63 64 65 65 66 66 67 67 68 69 69 70 70 71 71 73 74 76 77 79 79 80 80 80 80 80 79 80 81 80 78 81 82 82 82 82 82 83 85 87 89 88 88 89 88 88 89 89 90 90 89 89 89 90 90 89 85 80 81 88 88 89
62 62 63 64 65 65 66 66 66 67 67 67 67 68 70 70 71 72 73 76 77 78 79 79 79 79 79 79 80 80 80 79 80 81 81 81 81 82 82 83 85 86 85 86 87 87 86 87 88 89 90 90 90 89 89 89 87 79 72 72 75 85 87
61 61 62 63 64 64 65 65 65 65 66 66 66 67 67 69 70 71 72 73 74 76 77 77 77 77 77 77 77 76 75 75 76 77 78 79 79 80 81 82 83 83 84 85 87 85 87 87 87 87 89 90 90 90 90 89 82 72 71 71 70 75 86
60 61 61 62 62 62 62 63 64 64 64 65 65 66 66 68 69 70 72 72 73 74 75 75 75 76 76 77 77 74 73 73 74 76 76 75 74 76 78 79 80 81 82 83 85 85 84 84 86 86 87 88 87 88 89 90 80 70 69 69 69 69 78
61 62 63 63 63 62 63 63 64 65 65 64 65 66 67 68 68 70 72 73 73 73 73 73 73 73 75 75 74 74 73 73 73 74 72 71 71 71 72 74 76 77 79 82 82 82 83 85 84 84 84 85 86 86 88 89 83 70 68 68 67 68 72
62 63 63 63 62 62 63 64 65 65 65 65 65 66 66 66 67 68 68 69 70 71 71 71 72 72 72 73 73 73 72 73 71 70 70 71 72 71 71 72 70 71 73 77 79 80 80 81 82 83 83 85 86 87 88 90 71 69 67 65 66 67 73
64 65 65 65 64 63 64 64 64 65 65 66 66 66 66 66 67 67 67 67 67 68 69 70 71 71 72 71 71 71 71 71 70 70 69 69 70 70 70 71 71 71 73 74 72 73 74 77 80 79 81 81 82 84 83 84 63 64 65 65 65 67 79
66 67 68 68 68 67 66 67 67 66 67 67 67 67 66 66 66 66 66 65 66 66 66 67 68 69 69 69 69 70 70 71 70 70 69 69 69 69 70 71 72 72 71 70 72 71 73 74 77 78 78 78 78 79 78 80 66 60 60 60 62 70 82
68 69 69 69 69 69 68 67 69 69 69 69 69 69 68 67 66 65 65 65 65 65 65 65 65 67 68 68 69 69 70 70 70 69 69 69 69 69 70 70 70 70 71 69 69 69 70 73 74 76 76 76 77 78 76 77 67 59 58 59 61 71 80
68 69 70 69 69 68 68 67 67 68 68 68 67 69 69 67 66 65 64 64 65 65 64 64 64 65 66 67 67 68 69 69 69 69 68 68 68 69 69 70 70 70 70 70 70 70 71 72 71 71 73 74 74 74 75 75 67 58 58 58 60 70 79
66 67 69 70 71 70 68 68 68 68 68 68 68 71 70 70 67 65 64 64 65 64 64 64 64 65 66 66 66 66 66 66 67 67 67 67 67 68 68 69 69 70 70 70 71 71 71 71 71 70 71 73 75 75 76 75 73 62 56 57 58 62 75
68 68 68 70 69 69 70 69 68 67 67 67 68 72 72 71 68 66 65 64 64 64 65 65 66 66 66 66 66 66 65 65 64 64 63 64 64 65 64 64 65 67 69 70 70 70 70 71 71 72 70 70 71 72 73 73 68 60 53 54 56 60 67
69 70 70 69 68 69 69 70 68 68 68 68 69 71 73 72 68 67 66 65 64 65 68 67 67 67 67 66 66 66 65 65 64 64 63 64 63 62 62 63 64 65 66 68 69 69 70 70 71 69 68 68 69 69 69 69 67 65 57 53 53 53 58
65 65 66 67 68 70 70 68 68 67 67 68 68 68 70 72 68 68 67 65 65 68 69 69 69 68 68 67 66 65 64 64 63 63 63 63 63 63 63 63 64 64 65 65 68 69 69 69 69 67 65 64 64 65 66 67 67 65 63 56 53 52 54
65 65 66 67 67 68 70 68 68 68 67 67 66 66 67 68 67 67 66 65 68 70 71 71 70 69 68 68 67 66 65 65 64 63 62 62 62 62 62 63 64 64 65 66 67 67 67 67 66 65 63 62 61 61 62 62 63 64 64 62 55 53 52
65 66 66 65 65 66 66 67 66 67 67 67 66 65 64 65 65 66 65 66 69 69 70 70 71 70 69 68 68 67 67 66 65 64 63 63 63 63 63 63 64 63 64 66 66 66 65 64 65 64 63 62 60 60 60 61 61 61 62 64 63 57 54
65 66 67 68 67 66 66 67 67 67 67 66 67 66 65 65 65 62 64 67 68 70 70 70 70 69 68 69 68 69 70 68 67 66 64 63 63 63 63 62 62 62 61 62 65 65 64 63 63 62 61 61 61 61 61 61 61 61 61 63 63 63 59
65 65 66 66 65 66 67 67 67 65 65 64 65 67 68 66 66 65 65 66 69 71 70 70 69 68 68 68 69 69 69 69 67 66 65 63 63 63 63 63 62 61 60 59 61 63 63 64 63 62 61 61 61 61 61 61 60 61 62 63 63 64 64
65 65 65 64 64 65 66 66 65 65 65 64 64 65 66 66 66 66 66 67 68 70 70 69 68 69 69 70 70 69 68 68 65 65 64 62 61 61 62 63 63 60 58 57 57 60 60 60 60 59 59 60 61 61 61 61 60 61 58 58 58 59 61
65 66 65 66 65 65 65 65 65 64 65 64 64 65 65 65 66 65 65 65 67 67 68 67 68 68 68 68 69 67 67 67 67 67 65 63 61 58 56 57 61 61 60 59 57 56 59 61 59 59 59 59 58 59 60 61 62 60 51 51 48 49 53
65 65 66 66 65 65 66 65 65 66 66 65 65 65 65 65 65 66 66 66 66 67 67 67 67 67 67 68 68 69 69 68 69 67 67 68 65 63 60 53 47 51 60 59 54 48 45 49 56 55 58 59 59 60 59 60 58 48 42 41 42 43 43
65 66 67 66 67 67 67 66 66 67 66 65 65 66 66 66 66 66 66 65 66 66 66 67 67 68 68 67 67 66 68 68 68 67 65 66 66 66 63 63 59 44 45 51 50 46 42 41 42 45 48 54 60 56 49 50 45 41 41 42 42 42 42
66 66 66 66 66 66 67 67 67 67 66 66 66 66 66 67 67 66 68 66 67 67 66 66 66 66 67 68 68 67 67 68 67 67 66 65 65 65 64 64 63 61 47 43 47 46 42 42 41 41 42 43 48 59 59 51 44 41 42 42 43 43 42
MSLP
1012.43 1012.95 1013.15 1013.27 1013.39 1013.35 1013.43 1013.59 1013.67 1013.99 1014.23 1014.43 1014.55 1014.67 1014.87 1015.07 1015.31 1015.59 1015.91 1016.19 1016.47 1016.71 1016.79 1016.91 1017.07 1017.23 1017.47 1017.55 1017.63 1017.71 1017.79 1018.03 1018.23 1018.55 1018.79 1018.91 1018.95 1019.11 1019.35 1019.35 1019.55 1019.71 1019.59 1019.79 1019.79 1019.87 1019.79 1019.75 1019.95 1020.03 1020.07 1020.19 1020.31 1020.35 1020.47 1020.51 1020.59 1020.59 1020.67 1020.75 1020.91 1021.03 1021.07
1012.79 1012.91 1013.07 1013.07 1013.27 1013.23 1013.19 1013.27 1013.43 1013.63 1013.91 1014.11 1014.27 1014.47 1014.55 1014.79 1015.07 1015.39 1015.63 1015.83 1016.03 1016.19 1016.39 1016.59 1016.87 1017.03 1017.11 1017.27 1017.31 1017.51 1017.75 1017.83 1017.95 1018.15 1018.35 1018.67 1018.75 1018.83 1018.83 1019.03 1019.23 1019.39 1019.47 1019.43 1019.43 1019.47 1019.55 1019.63 1019.75 1019.91 1020.03 1020.07 1020.15 1020.19 1020.27 1020.39 1020.47 1020.55 1020.59 1020.67 1020.83 1020.95 1020.91
1012.95 1013.03 1013.03 1013.07 1013.19 1013.15 1013.19 1013.23 1013.43 1013.39 1013.55 1013.75 1013.95 1014.23 1014.39 1014.55 1014.63 1014.87 1015.23 1015.59 1015.95 1016.03 1016.11 1016.35 1016.55 1016.71 1016.83 1016.99 1017.27 1017.39 1017.47 1017.63 1017.79 1017.99 1018.23 1018.31 1018.47 1018.51 1018.55 1018.71 1018.87 1018.99 1019.03 1019.07 1019.23 1019.31 1019.31 1019.51 1019.59 1019.67 1019.83 1019.95 1019.91 1020.03 1020.15 1020.23 1020.31 1020.39 1020.47 1020.55 1020.71 1020.79 1020.91
1013.19 1013.47 1013.31 1012.99 1012.91 1012.87 1012.95 1013.07 1013.23 1013.27 1013.19 1013.27 1013.47 1013.63 1013.91 1014.15 1014.11 1014.39 1014.63 1014.95 1015.43 1015.79 1016.11 1016.03 1016.19 1016.39 1016.55 1016.83 1017.07 1017.23 1017.39 1017.43 1017.43 1017.55 1017.67 1017.75 1017.99 1018.11 1018.39 1018.59 1018.71 1018.71 1018.99 1019.07 1018.91 1019.03 1019.03 1019.23 1019.43 1019.55 1019.71 1019.83 1019.87 1019.83 1019.91 1020.03 1020.03 1020.15 1020.27 1020.43 1020.55 1020.55 1020.67
1013.35 1013.51 1013.63 1013.75 1013.55 1013.27 1013.15 1013.19 1013.23 1013.23 1013.15 1013.03 1013.19 1013.23 1013.35 1013.51 1013.75 1014.07 1014.35 1014.51 1014.75 1015.19 1015.19 1015.35 1015.59 1015.91 1016.19 1016.35 1016.63 1016.75 1016.99 1017.11 1017.23 1017.23 1017.31 1017.39 1017.59 1017.83 1018.15 1018.31 1018.39 1018.55 1018.55 1018.59 1018.67 1018.95 1019.11 1019.23 1019.27 1019.35 1019.51 1019.59 1019.71 1019.71 1019.87 1019.87 1019.95 1020.03 1020.19 1020.27 1020.51 1020.43 1020.51
1013.59 1013.91 1013.95 1014.03 1013.99 1013.91 1013.71 1013.43 1013.07 1012.87 1012.95 1013.15 1013.23 1013.31 1013.35 1013.51 1013.67 1013.99 1014.11 1014.39 1014.63 1014.75 1014.99 1015.31 1015.55 1015.79 1016.11 1016.15 1016.31 1016.47 1016.63 1016.83 1016.91 1016.99 1017.11 1017.27 1017.55 1017.75 1017.87 1017.99 1018.07 1018.19 1018.35 1018.47 1018.39 1018.55 1018.75 1018.95 1019.03 1019.11 1019.27 1019.23 1019.35 1019.47 1019.51 1019.67 1019.67 1019.75 1019.95 1020.11 1020.23 1020.23 1020.27
1013.71 1013.71 1014.03 1014.07 1014.07 1014.11 1013.91 1013.75 1013.59 1013.27 1013.07 1012.99 1013.03 1013.15 1013.35 1013.55 1013.75 1013.79 1014.03 1014.27 1014.47 1014.91 1015.07 1015.27 1015.27 1015.47 1015.75 1015.83 1016.07 1016.27 1016.55 1016.63 1016.75 1016.87 1016.83 1017.03 1017.19 1017.47 1017.55 1017.63 1017.75 1017.83 1017.87 1017.99 1018.31 1018.31 1018.59 1018.79 1018.87 1018.95 1019.03 1019.07 1019.15 1019.27 1019.39 1019.55 1019.63 1019.55 1019.75 1019.95 1020.15 1020.11 1020.15
1014.23 1013.95 1013.47 1013.35 1013.47 1013.71 1013.67 1013.51 1013.47 1013.27 1013.27 1013.23 1013.27 1013.39 1013.55 1013.55 1013.79 1014.07 1014.27 1014.31 1014.55 1014.87 1015.07 1015.15 1015.19 1015.31 1015.43 1015.59 1015.71 1015.99 1016.15 1016.23 1016.31 1016.47 1016.63 1016.87 1016.99 1017.23 1017.27 1017.43 1017.55 1017.59 1017.75 1018.03 1018.03 1018.11 1018.35 1018.47 1018.51 1018.63 1018.79 1018.95 1019.07 1019.11 1019.19 1019.31 1019.47 1019.39 1019.47 1019.75 1019.91 1019.99 1019.75
1014.75 1014.27 1014.07 1013.79 1013.47 1013.27 1013.55 1013.75 1013.59 1013.39 1013.39 1013.51 1013.51 1013.39 1013.51 1013.67 1013.75 1013.87 1014.03 1014.31 1014.51 1014.87 1015.11 1015.11 1015.19 1015.23 1015.35 1015.55 1015.71 1015.83 1015.83 1015.95 1016.15 1016.23 1016.47 1016.67 1016.75 1016.95 1016.95 1017.07 1017.23 1017.27 1017.63 1017.71 1017.71 1017.79 1017.95 1018.15 1018.23 1018.43 1018.55 1018.75 1018.83 1018.99 1019.03 1019.15 1019.19 1019.19 1019.31 1019.51 1019.67 1019.83 1019.71
1015.15 1014.79 1014.27 1014.07 1013.91 1013.75 1013.67 1013.63 1013.71 1013.71 1013.63 1013.63 1013.67 1013.67 1013.59 1013.55 1013.71 1013.79 1013.95 1014.11 1014.27 1014.59 1014.71 1014.83 1014.95 1015.07 1015.39 1015.67 1015.83 1015.75 1015.83 1015.99 1015.99 1016.11 1016.27 1016.47 1016.47 1016.63 1016.67 1016.67 1016.87 1016.99 1017.27 1017.35 1017.39 1017.63 1017.67 1017.75 1017.91 1018.15 1018.39 1018.59 1018.71 1018.79 1018.83 1018.91 1018.95 1018.99 1019.03 1019.27 1019.39 1019.51 1019.59
1015.31 1015.07 1014.75 1014.43 1014.47 1014.43 1014.15 1014.03 1014.11 1014.07 1013.95 1013.95 1014.07 1013.71 1013.59 1013.63 1013.67 1013.75 1013.83 1013.87 1013.99 1014.07 1014.07 1014.27 1014.47 1014.87 1015.23 1015.51 1015.87 1015.99 1015.99 1015.99 1015.95 1016.11 1016.15 1016.19 1016.15 1016.27 1016.35 1016.43 1016.55 1016.71 1016.95 1017.11 1017.27 1017.27 1017.39 1017.59 1017.63 1017.91 1018.15 1018.31 1018.39 1018.47 1018.55 1018.59 1018.63 1018.79 1018.79 1018.79 1018.83 1019.03 1019.11
1015.71 1015.51 1015.31 1015.03 1014.71 1014.55 1014.79 1014.39 1014.15 1014.39 1014.35 1014.15 1013.91 1013.79 1013.79 1013.67 1013.59 1013.55 1013.63 1013.71 1013.67 1013.91 1014.07 1014.19 1014.31 1014.67 1014.99 1015.39 1015.83 1016.03 1016.19 1016.15 1015.99 1015.99 1015.99 1015.99 1015.95 1015.99 1016.03 1016.11 1016.31 1016.47 1016.63 1016.75 1017.07 1017.11 1017.15 1017.35 1017.43 1017.55 1017.83 1017.87 1017.91 1017.95 1018.07 1018.11 1018.23 1018.39 1018.47 1018.47 1018.51 1018.63 1018.75
1015.99 1015.83 1015.59 1015.47 1015.19 1014.95 1014.83 1014.83 1014.87 1014.79 1014.71 1014.51 1014.39 1014.07 1013.79 1013.63 1013.51 1013.47 1013.51 1013.63 1013.55 1013.59 1013.83 1013.99 1014.15 1014.47 1014.91 1015.27 1015.31 1015.59 1015.79 1016.15 1016.31 1016.03 1015.79 1015.75 1015.71 1015.67 1015.79 1015.95 1016.03 1016.19 1016.39 1016.43 1016.71 1016.95 1017.03 1017.03 1017.23 1017.23 1017.39 1017.51 1017.55 1017.63 1017.71 1017.79 1017.79 1017.99 1018.11 1018.19 1018.27 1018.43 1018.55
1015.99 1015.87 1015.67 1015.47 1015.39 1015.31 1015.39 1015.31 1015.19 1015.19 1015.15 1015.15 1015.03 1014.71 1014.47 1014.19 1013.83 1013.59 1013.47 1013.51 1013.39 1013.43 1013.55 1013.79 1014.07 1014.43 1014.51 1014.55 1014.83 1015.03 1015.15 1015.15 1015.27 1015.59 1015.63 1015.55 1015.55 1015.63 1015.63 1015.71 1015.83 1015.99 1016.07 1016.19 1016.55 1016.67 1016.71 1016.79 1016.87 1016.95 1017.03 1017.15 1017.23 1017.27 1017.27 1017.47 1017.59 1017.67 1017.75 1017.83 1017.91 1018.11 1018.27
1016.55 1016.31 1015.99 1015.83 1015.67 1015.51 1015.51 1015.55 1015.51 1015.43 1015.27 1015.15 1015.07 1014.99 1014.71 1014.47 1014.27 1014.07 1013.87 1013.67 1013.55 1013.51 1013.59 1013.63 1013.95 1014.15 1014.35 1014.43 1014.47 1014.55 1014.59 1014.91 1014.99 1014.87 1015.03 1015.27 1015.51 1015.67 1015.71 1015.67 1015.71 1015.79 1015.91 1016.07 1016.23 1016.23 1016.31 1016.35 1016.43 1016.67 1016.83 1016.83 1016.95 1017.03 1017.03 1017.19 1017.27 1017.23 1017.35 1017.59 1017.71 1017.71 1017.91
1017.07 1016.79 1016.51 1016.27 1016.03 1015.87 1015.75 1015.75 1015.67 1015.67 1015.55 1015.47 1015.35 1015.23 1014.95 1014.67 1014.43 1014.23 1014.15 1013.99 1013.87 1013.87 1013.75 1013.75 1013.99 1014.11 1014.19 1014.31 1014.19 1014.11 1014.35 1014.83 1014.95 1015.15 1015.03 1015.03 1015.19 1015.39 1015.59 1015.63 1015.59 1015.59 1015.71 1015.83 1015.95 1016.07 1016.15 1016.27 1016.31 1016.39 1016.59 1016.75 1016.83 1016.83 1016.87 1016.95 1016.87 1016.95 1017.11 1017.19 1017.27 1017.43 1017.51
1017.39 1017.15 1016.91 1016.67 1016.39 1016.27 1016.15 1016.07 1016.07 1015.99 1015.83 1015.67 1015.47 1015.23 1014.99 1014.83 1014.59 1014.35 1014.19 1013.99 1013.95 1013.95 1013.87 1013.87 1013.99 1013.95 1013.99 1014.11 1013.99 1014.15 1014.43 1014.83 1015.03 1015.03 1015.15 1015.07 1014.99 1015.03 1015.27 1015.43 1015.43 1015.47 1015.59 1015.67 1015.75 1015.91 1016.07 1016.23 1016.35 1016.35 1016.31 1016.43 1016.51 1016.63 1016.63 1016.63 1016.63 1016.83 1017.03 1017.19 1017.27 1017.23 1017.27
1017.75 1017.51 1017.31 1017.15 1016.99 1016.75 1016.63 1016.51 1016.43 1016.35 1016.23 1016.03 1015.75 1015.47 1015.27 1014.91 1014.59 1014.39 1014.31 1014.15 1014.03 1013.91 1013.87 1014.03 1014.11 1014.15 1014.15 1014.07 1014.11 1014.39 1014.75 1015.19 1015.47 1015.47 1015.35 1015.19 1015.35 1015.07 1014.83 1014.95 1015.27 1015.47 1015.55 1015.59 1015.71 1015.83 1015.87 1016.07 1016.15 1016.15 1016.11 1016.11 1016.19 1016.31 1016.31 1016.31 1016.31 1016.55 1016.83 1017.03 1017.15 1017.23 1017.11
1018.07 1017.87 1017.71 1017.63 1017.51 1017.39 1017.27 1017.11 1016.91 1016.71 1016.47 1016.19 1015.95 1015.67 1015.31 1014.95 1014.67 1014.47 1014.23 1014.15 1013.95 1013.83 1013.95 1013.95 1013.99 1014.03 1014.03 1013.95 1014.03 1014.31 1014.39 1014.47 1014.55 1014.79 1015.15 1015.63 1016.03 1015.83 1015.27 1015.03 1015.19 1015.43 1015.59 1015.67 1015.51 1015.67 1015.99 1016.11 1016.07 1016.11 1015.99 1015.99 1016.15 1016.19 1016.07 1016.03 1015.99 1016.31 1016.59 1016.79 1016.99 1017.15 1017.19
1018.31 1018.11 1017.95 1017.83 1017.75 1017.71 1017.51 1017.19 1016.95 1016.75 1016.59 1016.39 1016.03 1015.63 1015.31 1014.99 1014.87 1014.47 1014.11 1013.99 1013.95 1013.95 1013.91 1013.95 1013.95 1013.99 1013.99 1013.95 1014.11 1014.23 1014.47 1014.71 1014.95 1015.15 1015.35 1015.67 1016.19 1016.55 1016.31 1015.71 1015.47 1015.55 1015.79 1015.63 1015.63 1015.83 1015.91 1015.87 1015.99 1015.99 1016.07 1015.99 1015.99 1015.99 1015.87 1015.83 1015.75 1016.07 1016.31 1016.51 1016.75 1016.91 1017.23
1018.47 1018.23 1018.11 1018.03 1018.07 1017.91 1017.67 1017.43 1017.15 1016.91 1016.71 1016.51 1016.27 1015.91 1015.55 1015.39 1015.19 1014.95 1014.75 1014.55 1014.47 1014.27 1014.15 1014.07 1013.99 1014.07 1014.11 1014.19 1014.15 1014.27 1014.39 1014.55 1014.87 1015.15 1015.31 1015.27 1015.51 1015.91 1016.43 1016.23 1015.87 1015.47 1015.71 1016.03 1016.19 1016.23 1016.15 1015.99 1016.03 1015.99 1015.99 1015.95 1015.87 1015.91 1015.87 1015.71 1016.03 1016.23 1016.39 1016.47 1016.59 1016.79 1017.07
1018.55 1018.19 1018.15 1018.03 1018.07 1018.03 1017.83 1017.67 1017.51 1017.35 1017.19 1016.79 1016.47 1016.31 1016.07 1015.99 1015.59 1015.35 1015.31 1015.03 1014.95 1014.75 1014.51 1014.27 1014.15 1014.03 1013.87 1013.91 1013.91 1013.95 1014.07 1014.31 1014.63 1014.99 1015.23 1015.47 1015.63 1015.95 1016.39 1016.47 1016.23 1016.03 1015.91 1016.19 1016.67 1017.15 1017.19 1016.79 1016.27 1016.23 1016.19 1016.07 1016.03 1016.03 1016.15 1015.95 1016.35 1016.63 1016.91 1016.99 1016.87 1016.87 1016.75
1018.51 1018.31 1018.11 1018.03 1017.87 1017.99 1017.83 1017.63 1017.55 1017.39 1017.15 1016.99 1016.79 1016.67 1016.63 1016.39 1015.99 1015.67 1015.51 1015.43 1015.35 1015.15 1014.99 1014.83 1014.67 1014.43 1014.19 1014.07 1013.91 1013.83 1013.95 1014.07 1014.39 1014.71 1014.99 1015.31 1015.63 1016.03 1016.35 1016.43 1016.15 1016.07 1016.15 1016.51 1016.59 1016.79 1017.15 1017.31 1016.99 1016.63 1016.59 1016.59 1016.47 1016.43 1016.35 1016.11 1016.27 1016.27 1016.79 1017.35 1017.23 1016.87 1016.43
1018.43 1018.23 1018.15 1018.11 1017.99 1017.95 1017.91 1017.83 1017.59 1017.43 1017.31 1017.19 1017.07 1016.95 1016.83 1016.67 1016.43 1016.15 1016.03 1015.99 1015.79 1015.59 1015.55 1015.43 1015.39 1015.19 1014.91 1014.79 1014.63 1014.43 1014.35 1014.43 1014.59 1014.87 1014.91 1015.15 1015.55 1015.87 1016.11 1016.19 1016.19 1016.43 1016.59 1017.07 1016.99 1016.71 1016.75 1017.03 1016.95 1016.75 1016.75 1016.91 1016.95 1016.67 1016.51 1016.23 1016.11 1015.99 1016.51 1017.43 1017.43 1016.95 1016.47
1018.63 1018.39 1018.27 1018.27 1018.31 1018.35 1018.27 1018.23 1018.07 1017.83 1017.63 1017.51 1017.47 1017.19 1016.95 1016.83 1016.67 1016.59 1016.59 1016.43 1016.23 1016.15 1016.19 1016.27 1016.23 1016.07 1015.91 1015.63 1015.35 1015.11 1014.91 1014.95 1015.03 1014.99 1014.99 1015.11 1015.39 1015.47 1015.83 1016.11 1016.27 1016.19 1016.47 1016.75 1016.79 1016.63 1016.47 1016.51 1016.79 1016.67 1016.63 1016.87 1017.15 1017.23 1017.03 1016.51 1016.35 1016.35 1016.51 1016.91 1017.27 1017.03 1016.47
1018.99 1018.75 1018.55 1018.31 1018.31 1018.39 1018.47 1018.35 1018.15 1018.11 1018.03 1017.95 1017.79 1017.31 1017.07 1016.95 1016.91 1016.99 1017.07 1017.03 1016.87 1016.83 1016.91 1016.87 1016.75 1016.55 1016.23 1015.95 1015.83 1015.79 1015.75 1015.63 1015.51 1015.47 1015.43 1015.35 1015.31 1015.59 1015.75 1015.71 1015.95 1016.27 1016.47 1016.59 1016.39 1016.19 1016.03 1016.23 1016.55 1016.79 1016.75 1016.51 1016.43 1016.71 1016.63 1016.35 1016.31 1016.59 1016.71 1016.95 1017.11 1016.91 1016.59
1018.95 1018.83 1018.79 1018.59 1018.67 1018.51 1018.43 1018.51 1018.51 1018.55 1018.51 1018.43 1018.07 1017.55 1017.27 1017.11 1017.19 1017.39 1017.43 1017.47 1017.43 1017.51 1017.43 1017.27 1017.07 1016.87 1016.71 1016.55 1016.51 1016.55 1016.51 1016.47 1016.43 1016.35 1016.19 1016.11 1016.03 1015.91 1016.03 1016.23 1016.39 1016.35 1016.43 1016.55 1016.47 1016.31 1016.11 1016.23 1016.51 1016.67 1016.75 1016.63 1016.59 1016.63 1016.63 1016.51 1016.87 1017.15 1017.15 1017.23 1017.23 1017.07 1016.87
1018.87 1018.79 1018.67 1018.71 1018.75 1018.67 1018.63 1018.63 1018.75 1018.67 1018.63 1018.51 1018.27 1017.91 1017.59 1017.43 1017.59 1017.67 1017.71 1017.75 1017.91 1017.83 1017.55 1017.43 1017.35 1017.23 1017.11 1017.03 1016.99 1016.95 1016.95 1016.91 1016.75 1016.47 1016.23 1016.19 1016.15 1016.27 1016.43 1016.63 1016.75 1016.75 1016.75 1016.59 1016.39 1016.19 1016.11 1016.27 1016.51 1016.79 1016.99 1016.91 1016.87 1017.03 1017.15 1017.07 1017.11 1017.27 1017.43 1017.39 1017.35 1017.31 1017.23
1019.43 1019.43 1019.31 1019.11 1018.95 1018.79 1018.67 1018.83 1018.91 1018.99 1018.91 1018.75 1018.59 1018.39 1018.03 1017.79 1017.99 1017.99 1017.95 1018.11 1018.15 1017.79 1017.59 1017.55 1017.47 1017.39 1017.31 1017.23 1017.19 1017.31 1017.35 1017.23 1017.03 1016.95 1016.87 1016.91 1016.87 1016.91 1017.19 1017.27 1017.23 1017.19 1016.95 1016.67 1016.43 1016.35 1016.47 1016.59 1016.79 1017.11 1017.47 1017.63 1017.67 1017.63 1017.51 1017.35 1017.31 1017.35 1017.43 1017.55 1017.55 1017.51 1017.47
1019.47 1019.47 1019.47 1019.35 1019.31 1019.15 1018.87 1018.95 1018.95 1018.99 1019.03 1018.99 1018.91 1018.75 1018.55 1018.27 1018.31 1018.27 1018.31 1018.47 1018.15 1017.79 1017.59 1017.47 1017.43 1017.35 1017.31 1017.31 1017.39 1017.43 1017.43 1017.31 1017.19 1017.19 1017.19 1017.15 1017.11 1017.19 1017.31 1017.23 1017.11 1017.03 1016.99 1016.87 1016.75 1016.83 1017.03 1017.27 1017.39 1017.63 1017.91 1018.07 1018.15 1018.07 1017.99 1017.91 1017.79 1017.63 1017.59 1017.63 1017.63 1017.55 1017.47
1019.63 1019.59 1019.59 1019.67 1019.63 1019.47 1019.31 1019.27 1019.23 1019.07 1019.07 1019.07 1019.03 1018.95 1018.87 1018.71 1018.67 1018.59 1018.67 1018.55 1018.15 1018.03 1017.87 1017.67 1017.55 1017.55 1017.59 1017.59 1017.59 1017.59 1017.55 1017.51 1017.51 1017.55 1017.51 1017.43 1017.43 1017.47 1017.55 1017.67 1017.63 1017.75 1017.59 1017.23 1017.19 1017.31 1017.55 1017.71 1017.71 1017.91 1018.07 1018.19 1018.27 1018.23 1018.15 1018.07 1017.99 1017.91 1017.71 1017.59 1017.55 1017.59 1017.59
1019.75 1019.63 1019.51 1019.43 1019.55 1019.59 1019.59 1019.47 1019.35 1019.19 1019.15 1019.19 1019.07 1018.99 1018.99 1018.99 1018.95 1019.11 1019.03 1018.59 1018.35 1018.07 1017.95 1017.87 1017.83 1017.87 1017.87 1017.79 1017.71 1017.63 1017.51 1017.59 1017.71 1017.71 1017.75 1017.75 1017.75 1017.87 1017.91 1018.03 1018.07 1018.11 1018.03 1017.79 1017.63 1017.71 1017.83 1017.95 1018.03 1018.11 1018.15 1018.19 1018.15 1018.11 1018.15 1018.23 1018.19 1018.15 1018.11 1018.03 1017.91 1017.79 1017.67
1019.79 1019.71 1019.71 1019.75 1019.87 1019.79 1019.71 1019.63 1019.59 1019.55 1019.43 1019.47 1019.31 1019.15 1019.03 1019.11 1019.03 1019.15 1018.99 1018.75 1018.43 1018.19 1018.11 1018.11 1018.11 1018.19 1018.11 1018.07 1017.95 1017.87 1017.83 1017.83 1017.95 1018.03 1018.03 1018.03 1017.99 1018.03 1018.15 1018.11 1018.23 1018.31 1018.39 1018.47 1018.35 1018.27 1018.31 1018.35 1018.35 1018.39 1018.39 1018.35 1018.39 1018.39 1018.39 1018.39 1018.43 1018.35 1018.35 1018.23 1018.11 1017.87 1017.63
1019.75 1019.79 1019.83 1019.95 1020.07 1020.07 1019.95 1019.91 1019.83 1019.75 1019.63 1019.67 1019.55 1019.43 1019.31 1019.27 1019.27 1019.23 1019.11 1018.91 1018.67 1018.47 1018.31 1018.35 1018.39 1018.35 1018.35 1018.27 1018.19 1018.23 1018.23 1018.27 1018.39 1018.39 1018.51 1018.63 1018.63 1018.59 1018.47 1018.43 1018.43 1018.67 1018.95 1019.11 1019.11 1018.79 1018.83 1018.91 1018.91 1018.95 1018.87 1018.75 1018.59 1018.51 1018.47 1018.43 1018.35 1018.35 1018.67 1018.59 1018.55 1018.39 1018.03
1019.67 1019.71 1019.87 1019.91 1020.03 1020.07 1020.07 1020.03 1019.99 1019.95 1019.79 1019.83 1019.75 1019.63 1019.55 1019.51 1019.43 1019.43 1019.35 1019.23 1018.99 1018.79 1018.71 1018.71 1018.63 1018.59 1018.59 1018.55 1018.47 1018.59 1018.59 1018.63 1018.63 1018.67 1018.83 1018.99 1019.19 1019.59 1019.75 1019.55 1018.99 1018.95 1019.19 1019.43 1019.51 1019.47 1019.15 1018.99 1019.07 1019.07 1019.15 1019.03 1018.95 1018.75 1018.59 1018.47 1018.39 1018.75 1019.47 1019.43 1019.47 1019.35 1019.07
1019.71 1019.83 1019.87 1019.95 1019.99 1019.99 1019.99 1019.99 1019.91 1019.83 1019.79 1019.87 1019.87 1019.83 1019.79 1019.75 1019.67 1019.59 1019.51 1019.43 1019.27 1019.07 1018.99 1018.95 1018.91 1018.83 1018.83 1018.75 1018.75 1018.75 1018.75 1018.75 1018.75 1018.91 1018.91 1018.91 1019.19 1019.43 1019.79 1020.19 1020.19 1019.83 1019.43 1019.55 1019.87 1019.79 1019.63 1019.35 1019.15 1019.43 1019.23 1019.03 1019.03 1018.99 1018.95 1018.95 1019.19 1019.59 1019.59 1019.47 1019.35 1019.23 1019.11
1019.71 1019.79 1019.75 1019.83 1019.79 1019.75 1019.75 1019.79 1019.79 1019.75 1019.83 1019.95 1019.91 1019.83 1019.83 1019.83 1019.83 1019.79 1019.75 1019.67 1019.55 1019.39 1019.27 1019.15 1019.11 1019.07 1019.07 1019.11 1019.15 1019.19 1019.07 1019.07 1019.07 1019.15 1019.23 1019.15 1019.15 1019.27 1019.51 1019.59 1019.91 1020.23 1020.23 1020.15 1020.15 1019.99 1019.91 1019.91 1019.91 1019.79 1019.67 1019.35 1018.95 1019.31 1019.47 1019.51 1019.63 1019.59 1019.47 1019.35 1019.19 1018.99 1018.63
1019.67 1019.71 1019.75 1019.79 1019.75 1019.71 1019.67 1019.63 1019.67 1019.75 1019.91 1019.99 1020.03 1020.03 1019.95 1019.83 1019.79 1019.91 1019.79 1019.83 1019.71 1019.59 1019.55 1019.47 1019.43 1019.51 1019.39 1019.27 1019.27 1019.35 1019.31 1019.23 1019.31 1019.31 1019.31 1019.39 1019.39 1019.43 1019.43 1019.43 1019.59 1019.95 1020.43 1020.55 1020.35 1020.23 1020.15 1020.07 1020.03 1020.03 1019.91 1019.75 1019.47 1019.03 1019.23 1019.59 1019.59 1019.51 1019.35 1019.23 1019.03 1018.71 1018.47
Wind_Speed
13 12 11 10 11 13 13 13 14 13 13 13 13 15 14 13 12 11 12 12 13 12 12 12 12 11 12 11 11 10 10 10 9 8 7 7 6 7 7 7 7 6 5 6 6 6 5 6 6 6 5 5 5 5 4 4 4 4 4 4 4 3 4
10 10 11 11 12 13 13 13 13 12 12 13 13 14 13 14 12 12 12 13 15 15 14 13 13 12 12 11 10 11 11 11 10 8 7 6 6 6 7 7 7 6 6 6 5 5 5 6 6 6 6 6 7 5 5 5 5 6 5 5 5 4 4
8 8 9 9 10 11 11 11 11 12 13 13 13 13 14 14 14 15 14 14 15 14 13 14 14 13 12 11 11 11 11 11 11 11 11 9 10 10 8 7 7 7 7 7 5 5 5 6 6 6 7 7 7 6 5 6 5 6 6 5 5 5 4
8 6 5 7 9 10 10 11 13 12 13 14 15 16 16 15 15 14 14 15 16 15 15 15 14 14 13 13 12 11 12 12 12 11 12 10 10 9 8 7 6 6 6 7 7 6 5 5 6 6 7 6 6 6 6 6 6 6 6 5 5 5 5
4 4 4 4 4 6 9 10 11 12 14 14 14 14 15 15 15 13 14 14 15 17 17 17 14 13 11 12 10 10 12 13 12 11 10 9 8 8 8 9 8 8 7 7 7 6 6 6 6 6 6 6 7 6 6 6 6 6 5 5 5 5 5
5 4 3 2 1 1 2 4 10 14 14 13 14 14 13 13 13 15 14 14 14 13 12 13 14 13 13 13 12 11 11 11 10 10 10 9 9 9 9 9 9 9 9 8 7 7 7 7 7 7 7 7 8 8 7 7 7 7 6 6 6 6 6
6 6 5 4 4 3 3 2 3 5 7 8 9 9 10 11 13 13 12 13 13 13 13 14 14 13 12 12 12 12 13 13 12 13 11 11 10 10 9 9 9 8 8 7 8 7 7 7 8 7 7 8 8 8 7 7 7 6 6 6 6 6 7
1 4 6 7 7 6 5 3 4 4 4 5 8 10 11 10 9 9 10 10 10 9 10 12 12 12 11 12 11 14 13 14 12 12 11 12 11 11 10 9 9 8 8 8 8 8 8 8 8 8 8 8 8 8 8 7 7 8 7 7 7 7 6
3 3 3 4 5 6 6 3 1 4 7 7 8 9 10 9 9 10 10 10 8 9 8 9 9 9 9 10 11 13 13 13 12 12 13 13 12 12 12 11 10 9 9 9 8 8 8 8 9 8 8 8 7 7 8 8 8 7 7 7 8 8 8
4 4 0 2 3 3 4 5 4 3 5 6 7 8 10 9 8 8 9 9 9 11 11 10 9 9 8 8 9 11 12 12 12 13 13 14 12 13 13 11 10 9 10 10 9 8 8 9 9 8 8 8 8 8 8 8 8 8 8 8 9 8 8
4 4 3 3 3 3 4 4 4 3 2 5 7 5 7 8 8 9 9 10 11 11 12 11 10 9 8 8 9 9 10 12 12 12 13 14 12 14 13 12 11 9 10 10 10 9 8 8 8 8 8 9 9 9 9 9 8 8 9 8 8 8 9
6 5 6 5 4 2 2 1 3 3 2 1 2 5 6 6 8 8 9 10 10 9 9 9 8 9 9 7 8 9 11 12 11 12 13 14 13 13 13 12 12 11 10 10 10 9 9 9 8 8 9 9 10 9 9 9 9 9 9 9 9 8 9
5 5 6 7 7 6 5 5 4 2 1 2 4 2 4 6 8 8 8 9 9 9 9 9 10 10 9 10 12 11 11 11 12 12 12 12 12 11 11 11 11 11 11 10 10 10 10 9 9 8 9 10 10 10 9 9 9 9 9 9 9 9 9
9 7 7 7 9 9 7 6 6 4 4 2 4 6 6 6 5 4 6 8 8 8 9 8 10 10 11 12 11 12 12 13 13 13 12 11 9 10 10 10 10 11 10 9 10 10 10 10 10 9 9 9 9 9 9 9 9 9 9 9 9 9 9
10 10 9 9 9 10 10 8 7 6 5 4 4 4 5 6 6 6 5 4 4 6 8 8 9 10 11 11 11 11 11 8 9 10 11 11 9 9 10 10 10 10 9 9 10 9 10 10 10 9 9 9 9 9 8 8 8 8 8 8 9 9 9
10 10 11 11 10 10 10 9 10 8 7 6 5 5 6 5 5 6 6 5 4 5 5 7 9 10 10 11 11 10 9 10 11 10 10 10 11 10 10 10 10 10 11 11 10 10 9 9 9 9 9 9 9 9 8 8 6 7 10 9 7 8 7
10 11 11 11 10 10 10 10 10 10 10 10 9 9 6 5 4 4 6 6 6 7 6 7 9 10 9 10 9 7 4 6 8 9 10 9 8 9 10 11 10 10 10 10 10 10 9 9 10 10 9 10 9 9 8 7 6 9 11 12 12 9 8
10 11 11 12 11 11 11 11 12 12 11 10 10 9 8 7 7 6 6 5 6 5 5 7 9 10 7 6 5 5 4 7 8 9 9 8 6 7 9 10 9 9 9 9 10 8 8 10 11 10 10 9 9 9 8 8 8 11 12 12 13 12 10
10 11 12 12 12 13 12 10 10 11 11 10 9 9 10 9 8 7 6 6 5 4 5 7 9 10 11 10 7 6 7 9 11 9 8 7 6 5 3 5 7 8 8 9 9 7 8 9 9 9 9 9 9 9 8 8 8 11 11 12 12 12 12
11 11 11 11 12 11 11 9 9 9 9 9 9 10 9 10 10 9 7 5 5 5 7 8 7 7 8 6 4 7 7 5 6 6 4 4 3 3 5 3 2 2 3 5 5 6 8 9 9 8 8 8 8 8 8 8 8 10 11 12 12 13 9
11 11 11 11 12 12 10 10 10 11 12 11 10 11 11 11 9 8 10 8 7 7 5 4 5 7 8 9 8 8 8 7 6 6 6 6 6 6 7 7 2 6 6 6 4 4 6 7 7 7 7 8 7 7 7 4 9 2 7 10 11 10 8
8 10 11 10 11 10 10 10 10 11 11 9 10 10 11 10 9 8 7 8 7 7 7 8 5 6 8 8 8 9 9 9 8 6 6 6 6 5 4 4 4 4 3 2 2 5 9 8 5 3 3 1 1 3 2 0 10 8 7 5 7 7 7
7 9 9 10 11 10 9 9 10 9 9 10 10 11 10 8 8 9 10 11 10 11 11 9 8 9 5 2 3 7 8 9 8 7 7 8 6 4 3 3 4 1 2 2 2 1 4 7 7 4 4 3 2 3 2 2 7 9 8 7 3 5 5
7 8 9 9 9 10 9 9 9 10 10 11 12 11 9 9 8 9 11 13 12 12 12 13 12 9 9 8 8 6 5 5 6 5 6 7 6 4 3 3 1 1 1 4 5 3 4 4 6 6 6 7 7 5 2 2 6 8 8 3 5 4 4
7 8 9 9 9 10 9 8 8 9 10 11 11 10 10 10 10 10 10 12 13 13 13 14 12 10 9 10 9 8 6 4 4 5 5 6 5 5 4 2 2 3 3 4 5 5 4 5 5 5 5 4 7 10 7 1 3 5 6 4 4 4 2
7 7 8 8 9 8 7 8 10 12 12 12 11 9 10 10 10 11 11 11 12 12 12 12 10 7 7 7 8 8 8 8 8 7 6 6 6 4 4 3 1 0 2 4 5 4 4 4 5 6 5 6 7 5 6 6 2 6 4 3 4 4 3
6 7 7 8 7 6 8 9 9 10 10 8 9 9 9 9 10 10 10 9 10 12 11 9 7 7 8 8 9 10 11 9 9 7 7 7 6 6 5 5 4 3 2 2 3 2 2 2 1 1 3 4 4 5 6 5 6 6 7 5 3 4 4
6 7 7 7 7 7 7 8 9 10 10 9 9 9 9 10 11 10 9 9 10 9 6 6 6 6 7 7 7 8 8 7 7 8 9 8 7 8 8 6 4 4 3 3 2 3 2 2 3 3 4 4 5 5 6 7 8 6 7 7 8 8 9
6 6 7 7 8 8 7 7 8 9 8 8 8 8 8 11 11 10 9 10 8 6 6 5 5 6 6 7 8 7 6 6 9 8 7 7 6 7 6 4 3 3 4 4 4 2 0 2 3 5 5 5 5 5 6 6 7 8 7 7 8 7 7
5 5 6 6 6 6 7 7 7 8 8 7 8 7 8 8 9 10 10 9 6 6 6 6 6 6 7 7 7 7 6 7 8 7 7 7 7 8 8 8 7 7 7 5 4 3 4 3 4 4 4 4 5 5 6 6 5 7 9 6 6 7 8
5 5 5 5 6 6 6 6 6 7 8 8 8 7 7 8 9 10 10 7 6 5 5 6 6 6 7 6 6 5 5 6 7 7 6 6 7 8 8 9 8 6 7 6 5 6 6 5 5 5 5 6 6 5 4 4 5 5 8 12 9 8 8
3 3 4 5 5 5 4 4 6 7 8 9 8 8 7 7 8 9 7 7 6 6 5 5 6 6 6 6 6 6 6 7 7 7 7 7 6 7 7 7 7 7 6 7 7 6 6 6 5 6 5 5 4 5 4 5 4 4 4 5 7 5 5
3 3 4 5 4 3 4 4 5 7 7 8 7 7 8 8 8 7 6 6 6 6 5 6 6 6 6 6 6 6 7 8 6 5 7 7 6 6 6 7 8 8 8 8 8 7 6 6 7 6 5 5 5 4 4 4 3 4 4 4 5 5 5
3 3 3 2 2 1 2 4 5 6 6 6 6 6 6 7 7 7 7 7 7 5 5 6 6 6 6 7 6 6 6 6 8 7 6 7 7 7 7 7 6 8 8 8 7 7 8 6 6 6 5 4 4 3 3 4 4 4 4 5 5 6 6
2 3 2 2 2 1 3 3 4 4 5 5 4 5 5 7 7 6 7 7 7 6 5 5 6 5 6 5 5 5 5 5 5 5 5 5 7 7 7 6 5 5 6 7 5 4 4 3 3 3 2 2 2 3 3 3 3 4 4 5 6 6 6
2 2 2 1 0 0 1 2 3 5 5 4 3 4 5 5 6 6 7 6 6 6 6 5 5 5 6 5 5 5 4 4 5 4 4 4 5 5 6 8 8 7 5 5 8 10 9 6 3 2 2 1 1 2 3 4 4 6 7 7 7 8 8
3 2 2 2 1 1 1 2 2 4 5 4 3 4 4 4 5 5 6 6 6 6 6 5 5 4 5 5 5 5 4 3 4 4 3 3 4 4 5 5 6 9 10 9 8 8 8 9 8 8 7 4 2 4 6 4 4 4 4 6 9 10 11
3 2 1 1 1 2 2 2 3 4 4 3 3 4 4 4 4 4 5 5 5 5 5 5 5 4 4 4 4 4 4 3 3 2 2 2 2 2 2 3 5 5 5 6 8 7 8 9 9 9 9 8 6 3 2 4 5 6 6 7 8 9 10
Wind_Direction
189 188 190 186 189 195 192 188 186 184 182 184 189 191 189 187 186 180 184 186 192 189 188 189 193 197 200 199 197 192 194 191 192 198 199 206 210 207 205 210 213 213 217 218 214 216 217 208 215 222 225 227 234 230 237 241 243 244 237 234 238 247 261
184 184 189 190 194 198 197 189 184 184 185 187 189 187 188 188 184 184 187 189 192 192 190 192 193 198 201 202 198 193 193 194 191 189 196 197 199 207 210 205 209 206 210 221 217 214 213 212 214 220 224 224 229 229 234 236 237 243 242 228 235 239 241
178 171 182 185 194 197 191 188 189 189 187 189 190 187 188 187 186 189 187 188 193 196 192 193 196 199 201 200 199 199 198 196 194 195 200 205 205 211 207 208 210 215 217 216 217 217 212 217 207 216 220 226 229 220 225 230 228 238 240 238 241 241 240
169 181 178 165 188 197 194 193 191 193 193 191 190 191 192 190 190 189 189 190 191 191 193 197 197 199 200 199 201 201 202 201 201 203 208 210 206 204 200 201 207 214 208 213 217 215 217 207 210 209 210 220 223 231 234 234 239 236 240 239 244 244 246
140 156 176 217 221 191 191 192 194 194 196 194 192 192 194 193 191 191 193 196 196 195 197 197 197 199 200 201 202 203 204 205 203 205 207 209 205 203 206 213 208 213 216 218 209 206 207 215 223 215 210 212 224 222 226 225 232 231 239 238 246 247 250
108 124 97 108 67 8 312 242 204 194 193 189 188 191 196 194 194 198 196 195 200 202 200 197 197 195 199 201 204 205 202 203 202 200 202 201 202 208 212 213 215 214 215 216 216 215 210 219 227 222 220 219 225 230 230 227 229 231 232 233 241 251 254
126 131 128 127 133 140 94 61 290 234 204 197 192 192 196 193 195 198 193 197 195 192 190 194 197 197 200 199 203 204 203 204 202 205 203 207 206 213 214 214 214 216 220 213 215 214 213 213 218 218 219 226 226 230 230 225 230 229 231 230 234 237 246
5 129 150 159 162 157 162 137 166 164 152 182 181 190 193 193 191 190 192 196 196 194 195 197 199 201 199 200 201 204 207 209 205 204 204 207 208 210 213 214 211 211 209 214 214 212 218 217 220 217 218 222 222 227 229 226 225 237 237 237 238 244 243
358 302 198 141 141 154 147 128 108 154 164 181 185 190 187 193 195 197 194 191 192 196 201 206 210 209 205 202 203 205 208 208 206 202 202 206 210 212 215 213 213 208 212 218 220 213 218 217 220 214 212 219 223 219 227 225 233 236 237 240 240 247 252
5 25 265 117 101 100 117 125 129 143 155 145 166 187 193 191 189 188 186 186 190 196 197 197 202 204 205 211 219 216 211 209 211 208 207 209 211 214 216 218 214 207 215 220 222 219 213 217 218 211 207 216 217 220 227 229 230 234 233 232 236 242 242
1 30 80 151 113 57 89 107 120 125 174 149 172 174 182 184 186 187 189 188 191 193 191 188 185 190 196 207 217 224 227 222 215 213 212 213 214 214 214 217 216 210 214 219 224 224 218 210 214 213 210 219 221 222 224 227 228 228 234 234 233 234 241
30 32 48 63 81 104 26 91 107 70 342 332 183 165 174 190 189 189 189 193 192 189 183 180 172 180 190 197 217 225 233 238 229 221 216 216 218 217 215 215 216 215 210 216 222 219 218 215 212 213 215 219 222 223 222 222 223 224 231 235 235 233 238
46 43 37 45 48 45 47 27 34 104 129 343 326 277 210 198 193 192 191 195 195 193 182 172 171 167 149 198 207 202 206 222 243 243 229 220 221 221 218 217 217 215 215 210 216 217 218 216 215 213 220 219 222 227 223 221 223 222 222 229 232 234 237
55 62 61 56 52 52 44 30 16 25 11 1 320 332 330 324 301 241 202 198 191 187 186 179 183 172 185 200 197 203 202 205 213 228 235 233 224 223 221 219 218 217 216 211 211 217 220 220 216 215 221 224 225 227 226 222 223 219 220 224 227 228 232
48 51 56 56 53 49 45 41 40 21 1 334 328 312 300 293 289 290 283 255 221 197 200 188 191 191 193 200 200 201 203 205 218 215 209 212 215 218 223 222 218 214 211 208 215 220 223 222 224 224 223 224 227 229 228 229 226 224 221 220 222 229 235
46 44 46 53 52 49 46 42 37 29 13 10 355 338 314 284 274 272 267 263 239 218 219 201 204 203 203 204 209 209 176 189 215 219 215 207 205 210 214 220 219 215 212 211 214 220 220 225 228 231 229 229 226 229 231 232 230 214 215 221 231 229 236
42 47 49 48 45 41 39 36 31 26 16 10 7 358 355 328 285 257 266 274 270 255 239 228 222 218 212 213 217 219 194 203 229 222 220 215 204 199 205 216 219 219 214 212 213 216 211 219 230 233 235 234 234 234 233 231 225 212 210 216 225 236 238
37 40 41 41 39 39 38 34 30 26 20 12 8 5 358 346 335 318 288 263 261 246 229 235 236 232 235 237 222 190 172 211 238 246 234 225 237 213 196 197 207 213 209 211 212 204 215 222 225 229 233 234 236 240 239 237 219 211 214 219 221 225 238
36 37 39 38 38 39 37 34 32 29 23 14 9 6 3 355 345 333 314 293 263 239 226 223 220 226 232 234 224 190 194 188 195 201 208 203 226 269 225 185 191 201 208 212 208 200 209 216 223 227 230 231 231 239 243 248 224 208 215 220 223 224 232
37 41 42 41 39 37 33 31 28 24 17 6 0 1 356 8 2 359 358 344 322 283 249 229 225 225 227 217 197 197 207 196 201 186 107 99 112 267 278 257 146 47 295 239 198 200 207 213 219 224 226 231 234 236 242 247 239 209 212 216 219 224 212
37 40 41 41 39 36 33 28 27 25 21 13 5 11 11 14 2 4 24 14 17 17 7 307 263 239 226 216 199 184 192 183 162 141 149 160 169 171 222 239 201 171 193 243 269 251 214 218 223 223 229 237 241 246 252 269 24 281 223 221 221 222 209
35 41 44 42 43 33 29 28 28 30 29 17 18 15 19 14 3 19 22 20 19 4 7 7 347 273 230 205 194 185 174 166 146 134 130 134 148 159 197 226 231 232 250 254 256 302 311 301 283 264 262 281 244 228 229 137 60 27 352 291 233 195 217
36 46 52 51 48 43 33 31 32 27 29 30 28 25 21 4 3 21 33 32 25 31 25 19 11 25 40 68 154 144 145 142 138 140 143 149 154 174 175 214 227 199 79 71 116 131 295 294 284 302 297 282 255 220 183 191 86 71 41 350 289 207 233
45 55 57 57 57 52 43 32 33 35 32 35 35 31 25 22 27 29 38 39 35 36 35 32 23 355 9 23 12 31 64 87 112 121 129 134 145 141 152 179 95 80 183 223 254 233 210 261 313 330 324 308 286 269 231 103 76 103 125 193 271 267 241
48 51 54 56 55 55 48 40 36 36 33 32 32 25 32 30 30 35 34 35 38 40 39 38 30 20 20 24 17 12 34 49 65 97 107 115 122 127 129 138 176 185 175 218 228 225 228 259 253 262 269 266 274 280 290 334 147 139 131 147 231 256 272
54 50 53 56 59 60 57 50 49 40 35 30 22 24 34 38 40 37 36 31 39 42 42 40 35 13 10 21 27 23 21 19 30 32 41 62 71 73 75 75 79 201 230 236 226 216 195 203 223 231 240 234 236 237 251 251 155 64 69 165 215 261 273
67 59 54 53 51 47 61 57 54 49 40 27 16 25 35 44 46 41 36 31 33 40 43 42 33 34 33 37 41 44 43 40 42 46 47 37 38 50 48 33 6 346 324 241 227 237 214 219 337 328 55 35 29 26 29 42 77 47 43 35 353 294 283
70 72 68 60 49 48 61 61 55 51 44 31 27 27 39 48 49 45 41 40 31 21 28 37 43 42 41 44 48 46 39 31 36 38 42 39 38 42 36 16 6 10 348 313 272 242 226 171 195 137 117 87 66 63 71 72 85 90 58 49 37 26 2
57 56 48 45 48 41 49 59 56 53 47 36 29 22 26 50 54 50 46 41 23 17 38 48 47 55 54 51 48 44 43 36 41 38 31 34 36 47 49 32 20 18 14 357 346 346 97 159 118 114 102 81 65 67 67 65 67 69 72 61 46 32 23
74 71 69 62 49 34 41 53 52 57 51 42 32 26 18 29 49 50 48 38 14 22 38 45 46 45 48 49 44 37 31 34 39 40 37 33 32 38 36 27 22 22 13 1 19 65 87 80 110 105 95 86 67 50 46 40 38 40 39 49 49 30 18
69 69 66 60 49 40 37 40 43 52 55 47 43 36 30 24 37 41 36 16 12 29 35 46 49 50 49 43 40 40 41 40 38 33 30 26 36 46 41 39 35 33 15 25 57 66 65 60 62 68 69 68 66 60 45 23 23 13 12 9 10 12 1
92 76 72 67 58 41 34 43 41 41 47 46 40 43 39 36 38 37 18 7 7 20 34 43 48 49 43 42 38 33 39 49 45 41 38 36 39 49 51 48 42 40 26 27 43 54 61 64 65 63 62 68 69 65 61 43 15 17 359 352 338 332 325
106 73 62 66 44 32 43 46 50 42 39 37 29 34 39 37 37 31 13 16 8 23 31 43 51 51 45 41 38 35 35 43 39 37 34 27 31 39 46 49 49 45 40 36 39 42 54 62 70 71 56 50 40 37 34 47 36 19 353 347 335 324 322
129 119 95 84 78 53 58 51 52 49 45 38 19 21 27 34 34 25 16 17 15 13 37 50 47 52 51 48 45 39 34 42 39 40 42 34 31 30 29 37 42 50 45 35 27 42 52 49 47 45 43 39 27 27 34 30 20 22 359 346 341 328 323
128 108 107 103 91 61 64 57 59 50 52 47 25 16 21 26 29 22 18 10 11 4 38 49 53 57 55 51 52 48 43 41 42 43 48 54 51 50 39 21 21 51 62 45 35 27 33 43 61 68 50 44 26 23 23 11 17 25 3 316 314 306 310
150 163 162 142 229 130 98 81 62 58 56 46 31 27 27 26 24 25 24 15 10 11 33 45 52 53 52 52 55 57 51 46 48 40 46 64 74 76 68 48 40 20 41 58 37 44 37 44 62 352 338 356 52 12 7 0 359 347 345 326 317 311 279
177 189 186 196 225 114 55 60 62 65 69 57 36 34 31 36 31 26 27 19 16 17 27 28 47 52 58 53 49 40 47 54 57 53 43 49 69 86 92 92 68 55 48 54 57 50 52 54 47 36 31 13 65 79 79 68 0 350 343 337 336 339 344
224 249 278 264 275 332 351 31 38 44 52 75 61 48 28 25 33 29 33 27 19 17 28 31 38 46 41 42 47 51 45 45 49 55 66 58 49 60 91 108 106 90 69 70 66 70 67 66 62 57 57 42 22 27 105 50 19 1 348 335 335 340 344